User: anonymous   Login
Location: Brabourne
(51.1333°N, 1.0000°E)
Time: 18:49:55
(UTC+00:00)
Language:

ADEOS Rocket - Orbit

View from above orbital plane
View from above orbital plane
View from above satellite
View from above satellite

Ground track
Ground track

The orbit data is extracted from the following two-line orbital elements,

1 24279U 96046C   21268.25500597  .00000047  00000-0  10753-3 0  9991
2 24279  98.7480  36.7042 0299011 267.1967 148.1493 13.47195209234431
Epoch (UTC): 25 September 2021 06:07:12
Eccentricity: 0.0299011
inclination: 98.7480°
perigee height: 859 km
apogee height: 1305 km
right ascension of ascending node: 36.7042°
argument of perigee: 267.1967°
revolutions per day: 13.47195209
mean anomaly at epoch: 148.1493°
orbit number at epoch: 23443

The dashed part of the orbit path shows where the satellite is in the earth's shadow,  

DLR